| time (UTC) | temp F | wind direction | speed MPH | gust MPH | rain 1hr in | rain 24hr in | rain mn in | humidity % | barometer mb |
| 20260510075534 | 65 | 71 | 1.0 | 2.0 | 0.00 | 0.00 | 0.00 | 58 | 1028.9 |
| 20260510074524 | 66 | 56 | 0.0 | 2.0 | 0.00 | 0.00 | 0.00 | 57 | 1028.7 |
| 20260510073541 | 66 | 49 | 0.0 | 2.0 | 0.00 | 0.00 | 0.00 | 57 | 1028.4 |
| 20260510072523 | 66 | 18 | 0.0 | 1.0 | 0.00 | 0.00 | 0.00 | 56 | 1028.2 |
| 20260510071532 | 67 | 45 | 0.0 | 2.0 | 0.00 | 0.00 | 0.00 | 55 | 1028.0 |
| 20260510070520 | 68 | 5 | 5.0 | 7.0 | 0.00 | 0.00 | 0.00 | 54 | 1027.8 |
| 20260510065537 | 68 | 4 | 5.0 | 7.0 | 0.00 | 0.00 | 0.00 | 53 | 1027.8 |
| 20260510064519 | 69 | 2 | 5.0 | 9.0 | 0.00 | 0.00 | 0.00 | 52 | 1027.6 |
| 20260510063529 | 70 | 1 | 5.0 | 6.0 | 0.00 | 0.00 | 0.00 | 51 | 1027.6 |
| 20260510062518 | 70 | 7 | 6.0 | 9.0 | 0.00 | 0.00 | 0.00 | 49 | 1027.5 |
| 20260510061527 | 70 | 351 | 6.0 | 8.0 | 0.00 | 0.00 | 0.00 | 49 | 1027.4 |
| 20260510060536 | 71 | 2 | 6.0 | 9.0 | 0.00 | 0.00 | 0.00 | 48 | 1027.3 |
| 20260510055526 | 71 | 354 | 5.0 | 7.0 | 0.00 | 0.00 | 0.00 | 47 | 1027.3 |
| 20260510054534 | 74 | 349 | 5.0 | 7.0 | 0.00 | 0.00 | 0.00 | 44 | 1027.2 |
| 20260510053522 | 71 | 346 | 5.0 | 6.0 | 0.00 | 0.00 | 0.00 | 47 | 1027.2 |
| 20260510052532 | 72 | 21 | 4.0 | 6.0 | 0.00 | 0.00 | 0.00 | 46 | 1027.1 |
| 20260510051522 | 71 | 345 | 5.0 | 7.0 | 0.00 | 0.00 | 0.00 | 48 | 1027.1 |
| 20260510050532 | 71 | 359 | 5.0 | 8.0 | 0.00 | 0.00 | 0.00 | 47 | 1027.0 |
| 20260510045520 | 72 | 355 | 6.0 | 8.0 | 0.00 | 0.00 | 0.00 | 46 | 1027.0 |
| 20260510044537 | 72 | 349 | 5.0 | 7.0 | 0.00 | 0.00 | 0.00 | 46 | 1026.9 |
| 20260510043518 | 70 | 354 | 5.0 | 9.0 | 0.00 | 0.00 | 0.00 | 48 | 1027.0 |
| 20260510042527 | 70 | 7 | 5.0 | 7.0 | 0.00 | 0.00 | 0.00 | 48 | 1026.9 |
| 20260510041517 | 70 | 360 | 5.0 | 8.0 | 0.00 | 0.00 | 0.00 | 48 | 1026.9 |
| 20260510040526 | 70 | 14 | 6.0 | 9.0 | 0.00 | 0.00 | 0.00 | 48 | 1027.0 |
| 20260510035536 | 71 | 359 | 4.0 | 11.0 | 0.00 | 0.00 | 0.00 | 48 | 1027.1 |
| 20260510034525 | 69 | 360 | 4.0 | 6.0 | 0.00 | 0.00 | 0.00 | 47 | 1027.0 |
| 20260510033534 | 70 | 7 | 5.0 | 9.0 | 0.00 | 0.00 | 0.00 | 47 | 1027.1 |
| 20260510032524 | 69 | 1 | 3.0 | 5.0 | 0.00 | 0.00 | 0.00 | 49 | 1027.2 |
| 20260510031534 | 70 | 19 | 4.0 | 7.0 | 0.00 | 0.00 | 0.00 | 47 | 1027.2 |
| 20260510030522 | 69 | 345 | 6.0 | 10.0 | 0.00 | 0.00 | 0.00 | 49 | 1027.3 |
| 20260510025533 | 68 | 357 | 3.0 | 6.0 | 0.00 | 0.00 | 0.00 | 49 | 1027.4 |
| 20260510024521 | 68 | 333 | 6.0 | 9.0 | 0.00 | 0.00 | 0.00 | 48 | 1027.6 |
| 20260510023530 | 68 | 350 | 6.0 | 9.0 | 0.00 | 0.00 | 0.00 | 49 | 1027.7 |
| 20260510022519 | 66 | 316 | 4.0 | 8.0 | 0.00 | 0.00 | 0.00 | 51 | 1028.0 |
| 20260510021528 | 66 | 12 | 4.0 | 8.0 | 0.00 | 0.00 | 0.00 | 53 | 1028.1 |
| 20260510020517 | 66 | 351 | 3.0 | 7.0 | 0.00 | 0.00 | 0.00 | 52 | 1028.2 |
| 20260510015527 | 66 | 13 | 5.0 | 8.0 | 0.00 | 0.00 | 0.00 | 54 | 1028.2 |
| 20260510014537 | 66 | 359 | 7.0 | 10.0 | 0.00 | 0.00 | 0.00 | 56 | 1028.5 |
| 20260510013533 | 65 | 345 | 7.0 | 9.0 | 0.00 | 0.00 | 0.00 | 58 | 1028.7 |
| 20260510012541 | 64 | 349 | 6.0 | 9.0 | 0.00 | 0.00 | 0.00 | 62 | 1028.7 |
| 20260510011523 | 63 | 318 | 5.0 | 11.0 | 0.00 | 0.00 | 0.00 | 65 | 1028.7 |
| 20260510010532 | 61 | 296 | 2.0 | 4.0 | 0.00 | 0.00 | 0.00 | 65 | 1028.8 |
| 20260510005521 | 60 | 349 | 3.0 | 6.0 | 0.00 | 0.00 | 0.00 | 67 | 1028.8 |
| 20260510004531 | 60 | 326 | 4.0 | 6.0 | 0.00 | 0.00 | 0.00 | 67 | 1028.8 |
| 20260510003520 | 59 | 285 | 2.0 | 5.0 | 0.00 | 0.00 | 0.00 | 69 | 1028.8 |
| 20260510002529 | 58 | 305 | 2.0 | 4.0 | 0.00 | 0.00 | 0.00 | 71 | 1028.8 |
| 20260510001518 | 57 | 279 | 2.0 | 3.0 | 0.00 | 0.00 | 0.00 | 71 | 1028.7 |
| 20260510000527 | 57 | 210 | 2.0 | 4.0 | 0.00 | 0.00 | 0.00 | 70 | 1028.8 |
| 20260509235536 | 56 | 218 | 2.0 | 3.0 | 0.00 | 0.00 | 0.00 | 72 | 1028.7 |
| 20260509234525 | 55 | 173 | 2.0 | 4.0 | 0.00 | 0.00 | 0.00 | 75 | 1028.7 |
| 20260509233536 | 54 | 129 | 2.0 | 4.0 | 0.00 | 0.00 | 0.00 | 79 | 1028.7 |
| 20260509232524 | 53 | 170 | 3.0 | 4.0 | 0.00 | 0.00 | 0.00 | 81 | 1028.8 |
| 20260509231533 | 53 | 174 | 3.0 | 6.0 | 0.00 | 0.00 | 0.00 | 84 | 1028.8 |
| 20260509230529 | 52 | 185 | 2.0 | 5.0 | 0.00 | 0.00 | 0.00 | 86 | 1028.8 |
| 20260509225532 | 51 | 161 | 2.0 | 4.0 | 0.00 | 0.00 | 0.00 | 92 | 1028.9 |
| 20260509224522 | 49 | 95 | 2.0 | 3.0 | 0.00 | 0.00 | 0.00 | 98 | 1028.7 |
| 20260509223530 | 48 | 30 | 1.0 | 2.0 | 0.00 | 0.00 | 0.00 | 98 | 1028.7 |
| 20260509222526 | 47 | 168 | 1.0 | 2.0 | 0.00 | 0.00 | 0.00 | 98 | 1028.5 |
| 20260509221529 | 46 | 301 | 1.0 | 2.0 | 0.00 | 0.00 | 0.00 | 98 | 1028.5 |
| 20260509220531 | 45 | 156 | 1.0 | 3.0 | 0.00 | 0.00 | 0.00 | 98 | 1028.4 |
| 20260509215527 | 44 | 191 | 1.0 | 3.0 | 0.00 | 0.00 | 0.00 | 99 | 1028.4 |
| 20260509214535 | 44 | 177 | 0.0 | 2.0 | 0.00 | 0.00 | 0.00 | 99 | 1028.3 |
| 20260509213525 | 44 | 66 | 1.0 | 2.0 | 0.00 | 0.00 | 0.00 | 99 | 1028.1 |
| 20260509212541 | 44 | 181 | 1.0 | 2.0 | 0.00 | 0.00 | 0.00 | 99 | 1028.0 |
| 20260509211524 | 44 | 206 | 0.0 | 4.0 | 0.00 | 0.00 | 0.00 | 99 | 1027.9 |
| 20260509210546 | 45 | 209 | 2.0 | 4.0 | 0.00 | 0.00 | 0.00 | 98 | 1027.6 |
| 20260509205521 | 45 | 199 | 1.0 | 2.0 | 0.00 | 0.00 | 0.00 | 97 | 1027.5 |
| 20260509204529 | 45 | 19 | 0.0 | 2.0 | 0.00 | 0.00 | 0.00 | 97 | 1027.3 |
| 20260509203517 | 44 | 65 | 0.0 | 2.0 | 0.00 | 0.00 | 0.00 | 98 | 1027.3 |
| 20260509202527 | 45 | 204 | 0.0 | 1.0 | 0.00 | 0.00 | 0.00 | 97 | 1027.1 |
| 20260509201544 | 44 | 145 | 1.0 | 2.0 | 0.00 | 0.00 | 0.00 | 98 | 1027.1 |
| 20260509200525 | 44 | 175 | 1.0 | 2.0 | 0.00 | 0.00 | 0.00 | 98 | 1026.9 |
| 20260509195534 | 45 | 359 | 3.0 | 4.0 | 0.00 | 0.00 | 0.00 | 97 | 1026.8 |
| 20260509194523 | 44 | 47 | 3.0 | 5.0 | 0.00 | 0.00 | 0.00 | 97 | 1026.7 |
| 20260509193533 | 44 | 24 | 2.0 | 5.0 | 0.00 | 0.00 | 0.00 | 97 | 1026.6 |
| 20260509192529 | 43 | 151 | 0.0 | 2.0 | 0.00 | 0.00 | 0.00 | 97 | 1026.5 |
| 20260509191532 | 43 | 307 | 1.0 | 3.0 | 0.00 | 0.00 | 0.00 | 98 | 1026.4 |
| 20260509190521 | 43 | 227 | 0.0 | 2.0 | 0.00 | 0.00 | 0.00 | 98 | 1026.1 |
| 20260509185536 | 44 | 164 | 1.0 | 3.0 | 0.00 | 0.00 | 0.00 | 97 | 1026.0 |
| 20260509184520 | 44 | 16 | 2.0 | 3.0 | 0.00 | 0.00 | 0.00 | 97 | 1026.1 |
| 20260509183529 | 44 | 19 | 0.0 | 2.0 | 0.00 | 0.00 | 0.00 | 98 | 1025.9 |
| 20260509182517 | 44 | 24 | 0.0 | 2.0 | 0.00 | 0.00 | 0.00 | 98 | 1025.9 |
| 20260509181534 | 44 | 193 | 1.0 | 2.0 | 0.00 | 0.00 | 0.00 | 97 | 1025.8 |
| 20260509180536 | 43 | 206 | 1.0 | 2.0 | 0.00 | 0.00 | 0.00 | 98 | 1025.8 |
| 20260509175525 | 44 | 176 | 1.0 | 3.0 | 0.00 | 0.00 | 0.00 | 98 | 1025.7 |
| 20260509174534 | 45 | 200 | 3.0 | 4.0 | 0.00 | 0.00 | 0.00 | 98 | 1025.6 |
| 20260509173530 | 45 | 191 | 3.0 | 5.0 | 0.00 | 0.00 | 0.00 | 98 | 1025.6 |
| 20260509172532 | 45 | 196 | 1.0 | 3.0 | 0.00 | 0.00 | 0.00 | 97 | 1025.7 |
| 20260509171521 | 46 | 6 | 0.0 | 2.0 | 0.00 | 0.00 | 0.00 | 97 | 1025.7 |
| 20260509170539 | 46 | 9 | 1.0 | 4.0 | 0.00 | 0.00 | 0.00 | 97 | 1025.7 |
| 20260509165521 | 45 | 11 | 2.0 | 5.0 | 0.00 | 0.00 | 0.00 | 97 | 1025.7 |
| 20260509164530 | 46 | 22 | 2.0 | 4.0 | 0.00 | 0.00 | 0.00 | 97 | 1025.7 |
| 20260509163519 | 45 | 8 | 2.0 | 4.0 | 0.00 | 0.00 | 0.00 | 97 | 1025.7 |
| 20260509162528 | 45 | 351 | 2.0 | 4.0 | 0.00 | 0.00 | 0.00 | 97 | 1025.5 |
| 20260509161517 | 45 | 195 | 1.0 | 2.0 | 0.00 | 0.00 | 0.00 | 97 | 1025.5 |
| 20260509160527 | 46 | 202 | 1.0 | 2.0 | 0.00 | 0.00 | 0.00 | 97 | 1025.6 |
| 20260509155538 | 46 | 169 | 2.0 | 3.0 | 0.00 | 0.00 | 0.00 | 97 | 1025.7 |
| 20260509154540 | 47 | 142 | 1.0 | 3.0 | 0.00 | 0.00 | 0.00 | 97 | 1025.7 |
| 20260509153534 | 47 | 163 | 2.0 | 4.0 | 0.00 | 0.00 | 0.00 | 97 | 1025.8 |
| 20260509152524 | 47 | 146 | 1.0 | 3.0 | 0.00 | 0.00 | 0.00 | 96 | 1025.9 |
| 20260509151533 | 47 | 94 | 1.0 | 2.0 | 0.00 | 0.00 | 0.00 | 96 | 1025.7 |
| 20260509150536 | 47 | 57 | 1.0 | 3.0 | 0.00 | 0.00 | 0.00 | 96 | 1026.0 |
| 20260509145532 | 47 | 135 | 0.0 | 2.0 | 0.00 | 0.00 | 0.00 | 96 | 1025.7 |
| 20260509144527 | 48 | 36 | 1.0 | 3.0 | 0.00 | 0.00 | 0.00 | 96 | 1025.9 |
| 20260509143528 | 48 | 171 | 1.0 | 3.0 | 0.00 | 0.00 | 0.00 | 96 | 1025.7 |
| 20260509142518 | 48 | 177 | 1.0 | 3.0 | 0.00 | 0.00 | 0.00 | 95 | 1025.9 |
| 20260509141529 | 47 | 171 | 3.0 | 4.0 | 0.00 | 0.00 | 0.00 | 96 | 1025.9 |
| 20260509140517 | 48 | 175 | 3.0 | 5.0 | 0.00 | 0.00 | 0.00 | 96 | 1025.7 |
| 20260509135526 | 48 | 146 | 2.0 | 4.0 | 0.00 | 0.00 | 0.00 | 95 | 1025.8 |
| 20260509134536 | 49 | 162 | 2.0 | 4.0 | 0.00 | 0.00 | 0.00 | 95 | 1025.8 |
| 20260509133525 | 49 | 166 | 2.0 | 4.0 | 0.00 | 0.00 | 0.00 | 95 | 1025.8 |
| 20260509132535 | 49 | 169 | 2.0 | 4.0 | 0.00 | 0.00 | 0.00 | 94 | 1025.8 |
| 20260509131523 | 50 | 75 | 2.0 | 4.0 | 0.00 | 0.00 | 0.00 | 94 | 1025.9 |
| 20260509130533 | 51 | 186 | 2.0 | 4.0 | 0.00 | 0.00 | 0.00 | 93 | 1026.1 |
| 20260509125522 | 51 | 164 | 2.0 | 4.0 | 0.00 | 0.00 | 0.00 | 93 | 1026.1 |
| 20260509124532 | 51 | 162 | 3.0 | 5.0 | 0.00 | 0.00 | 0.00 | 92 | 1026.0 |
| 20260509123521 | 52 | 116 | 1.0 | 4.0 | 0.00 | 0.00 | 0.00 | 91 | 1026.0 |
| 20260509122537 | 52 | 0.0 | 0.0 | 0.00 | 0.00 | 0.00 | 91 | 1026.0 | |
| 20260509121518 | 52 | 6 | 2.0 | 3.0 | 0.00 | 0.00 | 0.00 | 90 | 1026.0 |
| 20260509120527 | 52 | 0.0 | 1.0 | 0.00 | 0.00 | 0.00 | 89 | 1025.9 | |
| 20260509115524 | 53 | 353 | 2.0 | 3.0 | 0.00 | 0.00 | 0.00 | 88 | 1026.0 |
| 20260509114526 | 53 | 79 | 0.0 | 1.0 | 0.00 | 0.00 | 0.00 | 88 | 1025.9 |
| 20260509113535 | 52 | 151 | 0.0 | 1.0 | 0.00 | 0.00 | 0.00 | 88 | 1026.0 |
| 20260509112531 | 52 | 0.0 | 0.0 | 0.00 | 0.00 | 0.00 | 88 | 1026.1 | |
| 20260509111535 | 54 | 205 | 3.0 | 5.0 | 0.00 | 0.00 | 0.00 | 83 | 1025.9 |
| 20260509110523 | 55 | 0.0 | 1.0 | 0.00 | 0.00 | 0.00 | 82 | 1025.7 | |
| 20260509105533 | 55 | 0.0 | 0.0 | 0.00 | 0.00 | 0.00 | 83 | 1025.7 | |
| 20260509104522 | 55 | 0.0 | 1.0 | 0.00 | 0.00 | 0.00 | 83 | 1025.7 | |
| 20260509103538 | 55 | 0.0 | 0.0 | 0.00 | 0.00 | 0.00 | 83 | 1025.5 | |
| 20260509102519 | 55 | 0.0 | 0.0 | 0.00 | 0.00 | 0.00 | 82 | 1025.5 | |
| 20260509101528 | 55 | 0.0 | 1.0 | 0.00 | 0.00 | 0.00 | 81 | 1025.4 | |
| 20260509100518 | 55 | 30 | 0.0 | 1.0 | 0.00 | 0.00 | 0.00 | 84 | 1025.3 |
| 20260509095527 | 54 | 0.0 | 0.0 | 0.00 | 0.00 | 0.00 | 84 | 1025.3 | |
| 20260509094537 | 55 | 0.0 | 0.0 | 0.00 | 0.00 | 0.00 | 82 | 1025.2 | |
| 20260509093525 | 56 | 215 | 0.0 | 1.0 | 0.00 | 0.00 | 0.00 | 81 | 1025.1 |
| 20260509092536 | 56 | 0.0 | 0.0 | 0.00 | 0.00 | 0.00 | 81 | 1025.0 | |
| 20260509091524 | 56 | 145 | 0.0 | 1.0 | 0.00 | 0.00 | 0.00 | 79 | 1025.1 |
| 20260509090533 | 57 | 0.0 | 1.0 | 0.00 | 0.00 | 0.00 | 78 | 1025.0 | |
| 20260509085522 | 57 | 9 | 0.0 | 1.0 | 0.00 | 0.00 | 0.00 | 77 | 1024.9 |
| 20260509084539 | 57 | 0.0 | 1.0 | 0.00 | 0.00 | 0.00 | 76 | 1024.8 | |
| 20260509083521 | 58 | 7 | 0.0 | 2.0 | 0.00 | 0.00 | 0.00 | 75 | 1024.7 |
| 20260509082532 | 58 | 0.0 | 1.0 | 0.00 | 0.00 | 0.00 | 74 | 1024.4 | |
| 20260509081520 | 59 | 98 | 0.0 | 2.0 | 0.00 | 0.00 | 0.00 | 73 | 1024.3 |
| 20260509080529 | 59 | 26 | 0.0 | 3.0 | 0.00 | 0.00 | 0.00 | 72 | 1024.1 |